EW3381 Weather Reports


Display with metric or nautical units.
time (UTC)temp
F
wind
direction
speed
MPH
gust
MPH
rain 1hr
in
rain 24hr
in
rain mn
in
humidity
%
barometer
mb
20180124073653 44 229 7.0 19.0 0.00 1.27 0.66 85 984.7
20180124072659 44 179 7.0 20.0 0.03 1.27 0.66 84 984.6
20180124071648 44 164 7.0 20.0 0.07 1.27 0.66 83 984.2
20180124070706 45 223 6.0 15.0 0.00 1.25 0.64 83 984.2
20180124065710 45 204 6.0 18.0 0.00 1.25 0.64 84 984.0
20180124064726 45 88 7.0 19.0 0.00 1.25 0.64 84 984.0
20180124063705 46 277 7.0 19.0 0.00 1.25 0.64 83 983.9
20180124062652 46 238 7.0 22.0 0.00 1.25 0.64 82 984.2
20180124061621 47 217 7.0 22.0 0.00 1.25 0.64 83 984.1
20180124060614 47 157 7.0 18.0 0.00 1.25 0.64 86 984.2
20180124055623 47 262 7.0 17.0 0.00 1.25 0.64 88 983.8
20180124054607 47 228 6.0 17.0 0.00 1.25 0.64 89 983.5
20180124053607 47 168 5.0 16.0 0.00 1.25 0.64 90 983.8
20180124052547 47 196 4.0 16.0 0.03 1.25 0.64 90 983.9
20180124051548 47 150 5.0 12.0 0.07 1.26 0.64 91 983.8
20180124050534 47 237 5.0 13.0 0.11 1.26 0.63 91 984.4
20180124045536 48 246 5.0 16.0 0.18 1.24 0.61 91 984.7
20180124044532 48 161 6.0 16.0 0.18 1.22 0.59 90 985.1
20180124043524 49 186 5.0 18.0 0.18 1.18 0.53 93 985.9
20180124042536 49 192 7.0 18.0 0.11 1.15 0.50 93 985.6
20180124041513 49 198 7.0 17.0 0.06 1.14 0.48 92 985.2
20180124040503 48 195 6.0 17.0 0.07 1.12 0.47 93 985.5
20180124035436 48 96 5.0 12.0 0.08 1.11 0.46 93 986.0
20180124034419 48 155 5.0 13.0 0.11 1.10 0.44 93 986.7
20180124033413 48 220 5.0 13.0 0.14 1.08 0.43 93 986.8
20180124032348 47 188 5.0 11.0 0.22 1.05 0.40 94 987.7
20180124031355 47 344 5.0 12.0 0.21 1.01 0.37 94 988.2
20180124030401 47 146 6.0 12.0 0.18 0.98 0.33 94 988.6
20180124025327 47 184 6.0 17.0 0.11 0.94 0.29 93 988.9
20180124024317 47 215 7.0 17.0 0.11 0.92 0.27 93 989.2
20180124023301 46 198 6.0 16.0 0.20 0.90 0.25 93 989.8
20180124022309 46 249 8.0 19.0 0.18 0.86 0.22 92 990.0
20180124021239 46 270 9.0 19.0 0.16 0.84 0.18 92 990.5
20180124020212 46 96 8.0 15.0 0.14 0.81 0.16 92 990.7
20180124015207 45 151 6.0 15.0 0.12 0.79 0.14 93 991.3
20180124014228 44 265 5.0 11.0 0.03 0.77 0.12 94 991.7
20180124013234 43 209 3.0 10.0 0.06 0.77 0.11 95 992.2
20180124012200 43 268 1.0 6.0 0.05 0.76 0.11 95 992.8
20180124011147 43 258 2.0 6.0 0.07 0.74 0.09 94 993.4
20180124010129 42 281 0.0 6.0 0.18 0.73 0.07 93 994.3
20180124005148 43 63 1.0 5.0 0.14 0.71 0.06 93 995.1
20180124004130 43 266 1.0 4.0 0.04 0.70 0.04 93 996.0
20180124003055 43 234 3.0 7.0 0.08 0.69 0.03 91 997.0
20180124002118 44 148 4.0 8.0 0.11 0.67 0.02 89 997.8
20180124001135 43 304 4.0 13.0 0.03 0.65 0.00 90 998.2
20180124000152 43 231 4.0 16.0 0.03 0.65 0.00 91 998.5
20180123235129 43 210 3.0 16.0 0.00 0.65 0.65 90 998.8
20180123234113 42 254 2.0 7.0 0.00 0.64 0.64 90 999.4
20180123233051 43 246 1.0 5.0 0.00 0.64 0.64 89 999.8
20180123232017 44 238 1.0 6.0 0.00 0.64 0.64 88 999.8
20180123231014 44 235 2.0 7.0 0.00 0.64 0.64 87 999.9
20180123230031 43 268 2.0 7.0 0.00 0.64 0.64 88 1000.0
20180123225031 43 211 2.0 5.0 0.00 0.64 0.64 88 1000.0
20180123224012 42 163 1.0 4.0 0.00 0.64 0.64 88 1000.3
20180123222951 42 236 0.0 3.0 0.00 0.64 0.64 89 1000.3
20180123221915 42 261 0.0 1.0 0.00 0.64 0.64 89 1000.5
20180123220925 42 263 0.0 0.0 0.00 0.64 0.64 89 1000.7
20180123215947 42 208 0.0 4.0 0.00 0.64 0.64 89 1000.8
20180123214917 42 76 0.0 2.0 0.00 0.64 0.64 90 1000.7
20180123213928 42 109 0.0 0.0 0.00 0.64 0.64 90 1001.0
20180123212931 42 232 1.0 4.0 0.00 0.64 0.64 90 1001.0
20180123211923 42 161 0.0 5.0 0.00 0.64 0.64 90 1001.1
20180123210906 42 174 1.0 5.0 0.00 0.64 0.64 90 1001.3
20180123205924 42 191 1.0 6.0 0.00 0.64 0.64 90 1001.2
20180123204853 41 213 1.0 6.0 0.00 0.64 0.64 89 1001.2
20180123203848 41 197 0.0 5.0 0.00 0.64 0.64 90 1001.2
20180123202821 41 220 1.0 6.0 0.00 0.64 0.64 90 1001.2
20180123201809 41 144 1.0 6.0 0.00 0.64 0.64 90 1001.4
20180123200755 42 236 2.0 6.0 0.00 0.64 0.64 90 1001.3
20180123195722 41 190 1.0 7.0 0.00 0.64 0.64 90 1001.4
20180123194728 42 198 2.0 8.0 0.00 0.64 0.64 90 1001.5
20180123193705 42 225 1.0 8.0 0.00 0.64 0.64 90 1001.4
20180123192629 42 180 1.0 7.0 0.00 0.64 0.64 90 1001.4
20180123191606 42 189 2.0 7.0 0.00 0.64 0.64 90 1001.2
20180123190617 42 161 2.0 7.0 0.00 0.64 0.64 90 1001.2
20180123185615 42 197 3.0 6.0 0.00 0.64 0.64 91 1001.2
20180123184552 42 119 1.0 8.0 0.00 0.64 0.64 92 1001.2
20180123183516 42 159 2.0 8.0 0.00 0.64 0.64 92 1001.2
20180123182506 42 209 1.0 8.0 0.00 0.64 0.64 93 1001.1
20180123181504 42 159 2.0 8.0 0.00 0.64 0.64 93 1000.9
20180123180451 42 194 2.0 7.0 0.00 0.64 0.64 92 1000.6
20180123175459 42 152 1.0 6.0 0.00 0.64 0.64 93 1000.5
20180123174439 43 180 1.0 4.0 0.00 0.64 0.64 92 1000.0
20180123173405 43 218 1.0 8.0 0.00 0.64 0.64 92 1000.0
20180123172402 44 178 2.0 8.0 0.05 0.64 0.64 91 999.9
20180123171418 44 310 1.0 14.0 0.13 0.63 0.63 93 1000.1
20180123170358 44 282 4.0 14.0 0.34 0.59 0.60 93 1000.4
20180123165356 44 209 0.0 6.0 0.00 0.56 0.56 93 999.8
20180123164342 43 242 0.0 1.0 0.00 0.55 0.55 93 999.5
20180123163320 43 194 0.0 3.0 0.00 0.55 0.55 91 999.3
20180123162255 43 105 1.0 6.0 0.00 0.55 0.55 91 999.4
20180123161305 42 158 2.0 13.0 0.03 0.55 0.55 91 999.3
20180123160259 43 114 4.0 13.0 0.10 0.55 0.55 90 999.5
20180123155310 45 227 3.0 12.0 1.13 0.48 0.49 86 999.7
20180123154259 48 213 2.0 8.0 0.00 0.36 0.36 90 998.6
20180123153249 48 217 2.0 7.0 0.00 0.36 0.36 92 998.6
20180123152251 48 184 2.0 10.0 0.00 0.35 0.35 91 998.7
20180123151233 48 212 2.0 10.0 0.00 0.35 0.35 90 998.8
20180123150235 48 163 1.0 9.0 0.00 0.35 0.35 91 998.7
20180123145248 48 252 0.0 6.0 0.00 0.35 0.35 91 998.7
20180123144235 48 185 1.0 9.0 0.00 0.34 0.34 90 998.8
20180123143248 48 216 1.0 9.0 0.00 0.34 0.34 89 998.9
20180123142238 47 153 1.0 7.0 0.00 0.34 0.34 88 999.0
20180123141217 48 240 2.0 12.0 0.00 0.34 0.34 89 999.1
20180123140213 48 315 2.0 12.0 0.00 0.34 0.34 88 998.9
20180123135228 49 266 1.0 11.0 0.00 0.33 0.33 92 998.8
20180123134216 48 160 1.0 11.0 0.03 0.33 0.33 91 998.9
20180123133213 48 204 2.0 13.0 0.06 0.33 0.33 89 999.0
20180123132212 50 134 4.0 13.0 0.14 0.33 0.33 88 999.1
20180123131158 50 224 3.0 10.0 0.03 0.31 0.31 92 998.8
20180123130133 50 234 4.0 10.0 0.12 0.30 0.31 91 998.8
20180123125145 50 262 3.0 10.0 0.00 0.29 0.29 91 998.9
20180123124151 50 207 4.0 15.0 0.00 0.29 0.29 91 998.8
20180123123117 50 144 5.0 15.0 0.00 0.29 0.29 91 998.9
20180123122126 50 187 4.0 12.0 0.00 0.29 0.29 92 998.7
20180123121126 50 222 4.0 10.0 0.00 0.29 0.29 93 998.7
20180123120123 50 229 4.0 13.0 0.00 0.29 0.29 93 998.8
20180123115104 50 163 5.0 16.0 0.00 0.29 0.29 91 998.7
20180123114043 51 235 6.0 16.0 0.00 0.29 0.29 90 998.6
20180123113035 51 196 5.0 15.0 0.00 0.29 0.29 90 998.6
20180123112043 51 143 7.0 15.0 0.00 0.29 0.29 90 998.6
20180123111102 51 200 7.0 15.0 0.00 0.29 0.29 90 998.6
20180123110121 50 170 6.0 20.0 0.00 0.29 0.29 91 998.4
20180123105134 50 221 5.0 20.0 0.00 0.29 0.29 92 998.5
20180123104150 49 150 5.0 9.0 0.00 0.29 0.29 94 998.6
20180123103146 48 254 4.0 9.0 0.00 0.29 0.29 95 998.8
20180123102144 47 205 3.0 9.0 0.00 0.29 0.29 95 998.8
20180123101116 46 209 3.0 9.0 0.00 0.29 0.29 95 998.8
20180123100123 46 248 1.0 4.0 0.00 0.29 0.29 95 998.8
20180123095047 45 221 3.0 7.0 0.00 0.29 0.29 95 998.9
20180123094045 45 286 2.0 7.0 0.00 0.29 0.29 95 999.1
20180123093037 45 294 2.0 9.0 0.03 0.29 0.29 95 999.2
20180123092015 45 302 3.0 9.0 0.07 0.29 0.29 95 999.0
20180123090945 45 226 4.0 10.0 0.03 0.29 0.28 95 999.4
20180123085937 45 186 3.0 10.0 0.11 0.28 0.27 95 999.8
20180123084931 45 209 3.0 10.0 0.29 0.25 0.24 95 1000.3
20180123083913 45 232 3.0 7.0 0.12 0.19 0.18 95 1000.3
20180123082911 45 149 3.0 8.0 0.18 0.16 0.15 94 1000.7
20180123081853 45 205 2.0 8.0 0.18 0.14 0.13 94 1000.7
20180123080914 45 261 2.0 6.0 0.27 0.10 0.09 95 1000.8
20180123075852 44 205 0.0 4.0 0.12 0.07 0.06 95 1000.9
20180123074827 44 248 1.0 4.0 0.00 0.04 0.03 94 1000.8